Regional Weather Roundup
Issued by NWS Wakefield, VA

Home | Current Version | Previous Version | Text Only | Print | Product List | Glossary On
Versions: 1 2 3 4 5 6 7 8 9 10 11 12 13 14 15 16 17 18 19 20 21 22 23 24 25 26 27 28 29 30 31 32 33 34 35 36 37 38 39 40 41 42 43 44 45 46 47 48 49 50
433
ASUS41 KAKQ 222315
RWRAKQ

REGIONAL WEATHER ROUNDUP
NATIONAL WEATHER SERVICE WAKEFIELD VA
700 PM EDT THU JUN 22 2017

Note: "fair" indicates few or no clouds below 12,000 feet with no
significant weather and/or obstructions to visibility. * = Denotes
station may not report precipitation (e.g., rain,snow,etc.),
thunder or fog.

VAZ042-051-052>054-056-230000-
NORTHERN VIRGINIA

CITY           SKY/WX    TMP DP  RH WIND       PRES   REMARKS
WASH NATIONAL  CLOUDY    87  71  58 SW9       29.95S
DULLES         CLOUDY    83  72  69 S7        29.95S
FORT BELVOIR   CLOUDY    84  73  70 S3        29.95S
QUANTICO       CLOUDY    86  76  71 SW5       29.95F HX  96
FREDERICKSBRG* CLOUDY    85  74  68 SW10      29.95S
STAFFORD*      CLOUDY    83  73  71 CALM      30.00S
WARRENTON      CLOUDY    84  70  61 S3        29.95S
CULPEPER*      CLOUDY    84  72  67 S5        29.97R
MANASSAS*      CLOUDY    83  74  74 S5        29.95F
LEESBURG*      CLOUDY    86  75  70 SW5       29.96S HX  95
WINCHESTER     CLOUDY    81  70  69 S6        29.95F
FRONT ROYAL*   CLOUDY    82  73  74 CALM      29.95F
LURAY*         CLOUDY    82  73  74 W3        29.98S
$$

VAZ048-049-060>072-079>083-230000-
CENTRAL AND SOUTH CENTRAL VIRGINIA

CITY           SKY/WX    TMP DP  RH WIND       PRES   REMARKS
RICHMOND       CLOUDY    84  73  69 SW10      29.98S
CHESTERFIELD*  NOT AVBL
PETERSBURG*    PTSUNNY   80  69  70 CALM      30.00S
HANOVER        CLOUDY    84  69  60 SW9       29.98F
TAPPAHANNOCK*  CLOUDY    83  65  54 SW5       29.98S
QUINTON*       FAIR      83  76  79 MISG      29.97S
CHARLOTTSVILLE PTSUNNY   83  71  67 S8        29.97F
GORDONSVILLE*  CLOUDY    82  73  72 S6        29.97S
ORANGE*        CLOUDY    81  72  74 S3        29.97S
LOUISA*        CLOUDY    84  75  74 CALM      29.97S
BUMPASS*       FAIR      81  74  79 CALM      29.98S
FARMVILLE*     CLOUDY    81  68  65 SW3       29.98F
CREWE*         FAIR      81  66  61 CALM      30.00S
FORT PICKETT*  FAIR      81  74  78 CALM      30.01S
CHASE CITY*    FAIR      80  70  71 SW3       30.02F
CLARKSVILLE*   FAIR      77  72  83 S5        30.02S
SOUTH HILL*    MOSUNNY   80  74  81 SW9       30.08R
LAWRENCEVILLE* FAIR      81  73  76 MISG      30.01S
EMPORIA*       PTSUNNY   82  73  74 S5        30.02S
$$

VAZ088>098-230000-
SOUTHEAST VIRGINIA

CITY           SKY/WX    TMP DP  RH WIND       PRES   REMARKS
NORFOLK        CLOUDY    87  71  58 SW7       29.98F
VIRGINIA BEACH CLOUDY    85  70  60 SW7       29.98F
NORFOLK NAVAL  CLOUDY    85  71  63 SW7       30.00F
WEST POINT*    PTSUNNY   84  73  69 SW3       29.99S
SALUDA*        FAIR      84  76  77 SW3       29.97S
NEWPORT NEWS   CLOUDY    84  73  69 SW12      29.98F
LANGLEY AFB    CLOUDY    84  73  69 SW14      29.98F
FORT EUSTIS    CLOUDY    84  75  73 SW3       29.96F
WILLIAMSBURG*  CLOUDY    84  75  74 CALM      29.99F
HR EXEC AP*    FAIR      84  72  65 SW12      29.97S
FRANKLIN*      PTSUNNY   82  73  74 SW5       30.01S
US460-WAKEFLD  CLOUDY    84  74  71 CALM      30.00S
$$

VAZ020-022-025-037-045-230000-
WEST CENTRAL AND SOUTHWEST VIRGINIA

CITY           SKY/WX    TMP DP  RH WIND       PRES   REMARKS
STAUNTON*      CLOUDY    80  69  70 SW6       30.02S
WAYNESBORO*    MOCLDY    79  72  77 S8        30.02S
HOT SPRINGS VA CLOUDY    72  55  56 CALM      30.16F
LYNCHBURG      CLOUDY    79  70  74 SW7       30.02F
DANVILLE       CLOUDY    77  72  84 S7        30.03F
SOUTH BOSTON*  FAIR      78  69  73 S5        30.02F
MARTINSVILLE   CLOUDY    77  72  83 CALM      30.07R
ROANOKE        CLOUDY    81  66  60 W6        30.04F
BLACKSBURG     CLOUDY    74  67  77 SW6       30.13R
DUBLIN*        DRIZZLE   74  64  72 SW7       30.11S
MARION*        LGT RAIN  71  67  87 W5        30.16R
HILLSVILLE*    DRIZZLE   68  64  86 CALM      30.13S
RICHLANDS*     DRIZZLE   69  68  98 CALM      30.13S
WISE*          RAIN      68  68 100 CALM      30.12F
ABINGDON*      LGT RAIN  73  70  91 CALM      30.11S
$$

MDZ021>025-VAZ099-100-230000-
SOUTHERN MARYLAND AND THE DELMARVA PENINSULA

CITY           SKY/WX    TMP DP  RH WIND       PRES   REMARKS
PATUXENT RIVER CLOUDY    84  73  69 SW7       29.95S
BAY BRIDGE APT PTSUNNY   84  72  65 SW3       29.94S
LEONARDTOWN    CLOUDY    82  72  69 SW3       29.97S
DOVER          CLOUDY    84  75  74 SW9       29.93R
GEORGETOWN     CLOUDY    84  72  67 SW6       29.95S
EASTON         CLOUDY    84  72  65 SW5       29.98S
CAMBRIDGE      SUNNY     84  73  70 CALM      29.95S
SALISBURY      CLOUDY    83  75  77 SW6       29.96S
OCEAN CITY     CLOUDY    83  72  69 SW6       29.96S
WALLOPS ISLAND CLOUDY    82  74  76 S6        29.97F
ACCOMACK*      CLOUDY    85  73  68 SW7       29.97S
$$

NCZ012>017-030>032-230000-
NORTH CENTRAL AND EASTERN NORTH CAROLINA

CITY           SKY/WX    TMP DP  RH WIND       PRES   REMARKS
ROANOKE RAPIDS FAIR      81  72  74 SW9       30.03S
RALEIGH        CLOUDY    77  72  84 SW8       30.05F
ELIZABETH CITY CLOUDY    84  76  76 SW10      30.01S
AHOSKIE*         N/A     79  75  87 CALM      30.02S
EDENTON*       CLOUDY    84  75  73 CALM      30.03S
CURRITUCK*     CLOUDY    85  74  69 SW9       30.01S
KILL DEVIL HLS CLOUDY    85  73  65 W6        30.01S
MANTEO         CLOUDY    84  74  70 W12       30.03R
CAPE HATTERAS  LGT RAIN  80  74  81 W9G17     30.05S
TARBORO*       NOT AVBL
GOLDSBORO      CLOUDY    78  76  93 S3        30.04S
WASHINGTON     CLOUDY    81  76  86 SW6       30.04F
GREENVILLE     CLOUDY    81  73  78 W5        30.06S
NEW BERN       CLOUDY    78  75  90 CALM      30.05F
WILMINGTON     MOSUNNY   79  77  94 S5        30.07S
$$

VAZ048-230000-
ELSEWHERE

CITY           SKY/WX    TMP DP  RH WIND       PRES   REMARKS
HARRISBURG PA  CLOUDY    86  69  56 SW8       29.91S
BALTIMORE      CLOUDY    85  71  63 SW6       29.94S
ANNAPOLIS      PTSUNNY   85  72  65 VRB5      29.94S
ANDREWS AFB    CLOUDY    84  71  63 SW8       29.95S
PHILADELPHIA   CLOUDY    87  67  51 SW13      29.92S
HENDERSON NC   CLOUDY    74  68  81 S3        30.04S
GREENSBORO     CLOUDY    77  72  84 SW10      30.06S
ROCKY MOUNT    LGT RAIN  79  76  90 SW3       30.04F
$$

VAZ100-230000-
MARINE

STATION/POSITION TIME  TEMP    WIND        PRES    WAVE   SWELL
                       AIR SEA DIR/SP/G            HT/PER HT/PER
                 (UTC) (F)     (DEG/KT/KT) (MB)    (FT/S) (FT/S)
BRANDYWINE LGT   2248          250/  7/  8 1014.2S
CAPE MAY NJ      2242   75 72  110/  3/  4 1013.7F
LEWES DE         2248   84 73  250/  6/  9 1013.9S
15NM E FENWICK I 2250   73 69  210/ 12/ 14 1014.5F   2/ 6   2/ 6
OCEAN-CITY-INLET 2248   70 65  200/  5/  8 1014.6F
WACHAPREAGUE VA  2248   85 80  250/  3/  8 1014.8F
THOMAS POINT MD  2300   83 78  210/  5/  5   N/A
GOOSES REEF MD   2300   83 81  230/  4/  6 1014.9    0
COVE POINT MD    2248   84     220/  5/  7 1014.8F
SOLOMONS ISLAND  2248   83 76  210/  5/  8   N/A
BISHOPS HEAD MD  2248   83 85  190/  6/  8 1014.6F
PINEY POINT MD   2236          230/  7/  7   N/A
POTOMAC MD       2300   84 81  240/  6/  8 1013.5    0
CAMBRIDGE MD     2248                      1014.9F
LEWISETTA VA     2248   85 79  240/  7/  8 1014.3F
RAPPAHANNOCK LGT 2236          190/ 12/ 14 1015.5F
STINGRAY PT      2250   83     250/ 10/ 12 1015.3F
YORK RVR RNG VA  2248   82     230/ 12/ 12 1015.3F
YORKTOWN VA      2236   84 76  220/  7/ 11 1014.7F
JAMESTOWN VA     2300   83 83  220/  8/ 10   N/A     0
DOMINION TERM VA 2236   82     250/  5/  6 1015.7F
KIPTOPEKE VA     2236      80  240/ 10/ 12   N/A
CHES BAY BRIDGE  2236   83 74  270/ 11/ 12 1015.3F
CAPE HENRY VA    2236   85     230/  5/  7   N/A
WILLOUBY STN VA  2236   82     240/  9/ 10 1015.4F
S CRANEY ISL VA  2236   85     240/  5/  7 1015.4F
CAPE HENRY BUOY  2230      77                N/A     2/ 7
1ST LANDING BUOY 2300   83 77              1015.1    1/ 3
CAPE CHARLES BUO 2251      75                N/A     1/ 7
64NM E OF VA BCH 2250   74 73  200/  8/ 10 1016.6F   2/ 9   2/ 9
DUCK PIER NC     2236   84 64  250/ 11/ 13 1016.0R
44100 DUCK FRF   2205      71                N/A     2/ 7
OREGON INLET NC  2236   81 82  200/ 14/ 17 1016.6S
HATTERAS NC      2236   79 79  240/ 10/ 15 1017.2F
DIAMOND SHLS NC  2250   80 80  240/ 16/ 19 1017.3F   2/ 8   2/ 8
CAPE LOOKOUT NC  2300   80     260/ 11/ 12 1017.9S
$$




USA.gov is the U.S. government's official web portal to all federal, state and local government web resources and services.